Погода в Болышеве

Россия / Смоленская область     55°34′33″N   33°35′30″E
темп.,
°C
ветер,
м/с
пор.,
м/с
влажн.,
%
обл.,
%
осадки,
мм/ч
давл.,
гПа
погр.,
м
28 сентября, вт
вт2800:00+8ссв4888100 0.1 1027392
03:00+8ссв4892100 0.1 1027435
06:00+7св3993100 0.0 1028388
09:00+7св4890100 0.1 1029614
12:00+7всв577696 0.1 1031862
15:00+8в456697 0.1 1031833
18:00+8всв357167 0.0 1032252
21:00+7вюв267698 0.0 1034355
29 сентября, ср
ср2900:00+4вюв22895 0.0 103524
03:00+3в11905 0.0 103610
06:00+2всв11906 0.0 103710
09:00+5всв227648 0.0 1037197
12:00+9всв226173 0.0 1037752
15:00+11всв225097 0.0 1035972
18:00+8всв1165100 0.0 103510
21:00+6всв2272100 0.0 103610
30 сентября, чт
чт3000:00+4в1178100 0.0 103610
03:00+4в118361 0.0 103610
06:00+3всв118517 0.0 103610
09:00+6в22735 0.0 1036162
12:00+11вюв23585 0.0 1036726
15:00+12юв22557 0.0 10351058
18:00+9юв227334 0.0 103418
21:00+7ююв228420 0.0 103538
1 октября, пт
пт100:00+6ю239013 0.0 103637
03:00+5ююз23924 0.0 103546
06:00+4ю23930 0.0 103540
09:00+7ю34805 0.0 1035197
12:00+11ююз45625 0.0 1035789
15:00+13ююз45555 0.0 10341041
18:00+9ююз227326 0.0 103324
21:00+7ююз338469 0.0 103436
2 октября, сб
сб200:00+5ююз348948 0.0 103458
03:00+4ю349168 0.0 103469
06:00+4ю369295 0.0 103396
09:00+7ю4778100 0.0 1033228
12:00+12ю575768 0.0 1032720
15:00+13ююз57509 0.0 10301145
18:00+9ю37710 0.0 1030110
21:00+7ю411830 0.0 1030206